EW8275 Weather Reports


time (UTC)temp
C
wind
direction
speed
KPH
gust
KPH
rain 1hr
cm
rain 24hr
cm
rain mn
cm
humidity
%
barometer
mb
20260506081039 12 317 8.0 20.9 0.00 0.00 0.00 77 1008.2
20260506080533 12 49 8.0 20.9 0.00 0.00 0.00 77 1008.1
20260506073025 11 65 6.4 12.9 0.00 0.00 0.00 82 1008.1
20260506072551 11 346 3.2 12.9 0.00 0.00 0.00 82 1008.1
20260506072047 11 30 3.2 12.9 0.00 0.00 0.00 83 1008.1
20260506071542 11 321 3.2 11.3 0.00 0.00 0.00 82 1008.1
20260506071034 11 336 6.4 12.9 0.00 0.00 0.00 82 1008.1
20260506070557 11 50 6.4 14.5 0.00 0.00 0.00 82 1008.1
20260506062041 10 324 3.2 19.3 0.00 0.00 0.00 83 1007.8
20260506061556 10 360 6.4 19.3 0.00 0.00 0.00 83 1007.8
20260506061038 10 321 6.4 14.5 0.00 0.00 0.00 83 1007.8
20260506060531 10 319 4.8 17.7 0.00 0.00 0.00 83 1007.8
20260506051034 10 41 3.2 8.0 0.00 0.00 0.00 86 1007.8
20260506050545 10 53 3.2 11.3 0.00 0.00 0.00 86 1007.8
20260506045048 10 40 3.2 9.7 0.00 0.00 0.00 87 1007.8
20260506044548 10 47 3.2 8.0 0.00 0.00 0.00 87 1007.8
20260506044044 10 333 3.2 9.7 0.00 0.00 0.00 87 1007.9
20260506043533 9 19 4.8 9.7 0.00 0.00 0.00 88 1007.8
20260506043039 9 5 4.8 9.7 0.00 0.00 0.00 88 1007.9
20260506042534 9 322 1.6 8.0 0.00 0.00 0.00 88 1007.8
20260506042049 9 5 1.6 8.0 0.00 0.00 0.00 88 1007.9
20260506041557 9 355 3.2 8.0 0.00 0.00 0.00 88 1007.9
20260506041029 9 33 3.2 9.7 0.00 0.00 0.00 87 1007.9
20260506040537 9 360 3.2 11.3 0.00 0.00 0.00 86 1007.9
20260506035544 10 41 6.4 11.3 0.00 0.00 0.00 85 1008.0
20260506035047 10 355 3.2 11.3 0.00 0.00 0.00 85 1008.0
20260506034557 10 16 3.2 11.3 0.00 0.00 0.00 85 1008.0
20260506034035 10 24 4.8 12.9 0.00 0.00 0.00 85 1008.0
20260506033603 10 5 3.2 12.9 0.00 0.00 0.00 85 1008.0
20260506033051 10 43 4.8 8.0 0.00 0.00 0.00 85 1008.1
20260506032536 10 59 3.2 9.7 0.00 0.00 0.00 84 1008.1
20260506032027 10 34 3.2 9.7 0.00 0.00 0.00 84 1008.1
20260506031552 10 18 4.8 11.3 0.00 0.00 0.00 84 1008.1
20260506031041 10 360 3.2 14.5 0.00 0.00 0.00 84 1008.1
20260506030546 10 26 3.2 8.0 0.00 0.00 0.00 84 1008.1
20260506030030 10 50 4.8 11.3 0.00 0.00 0.00 84 1008.2
20260506025552 10 57 6.4 11.3 0.00 0.00 0.00 84 1008.2
20260506025030 10 304 6.4 12.9 0.00 0.00 0.00 84 1008.2
20260506024600 10 5 4.8 12.9 0.00 0.00 0.00 84 1008.3
20260506024048 10 30 4.8 12.9 0.00 0.00 0.00 84 1008.3
20260506023536 10 5 4.8 11.3 0.00 0.00 0.00 84 1008.3
20260506023042 9 24 4.8 11.3 0.00 0.00 0.00 84 1008.2
20260506022532 9 32 3.2 12.9 0.00 0.00 0.00 84 1008.3
20260506022037 9 33 6.4 12.9 0.00 0.00 0.00 84 1008.3
20260506021535 9 37 4.8 11.3 0.00 0.00 0.00 84 1008.3
20260506021029 9 355 6.4 11.3 0.00 0.00 0.00 85 1008.3
20260506020548 9 25 3.2 14.5 0.00 0.00 0.00 85 1008.3
20260506020031 9 19 4.8 14.5 0.00 0.00 0.00 85 1008.4
20260506015532 9 314 4.8 11.3 0.00 0.00 0.00 85 1008.4
20260506015030 9 19 3.2 12.9 0.00 0.00 0.00 85 1008.4
20260506014555 8 22 4.8 12.9 0.00 0.00 0.00 85 1008.3
20260506014039 8 348 4.8 12.9 0.00 0.00 0.00 85 1008.3
20260506013549 8 36 4.8 11.3 0.00 0.00 0.00 86 1008.4
20260506013040 8 338 4.8 11.3 0.00 0.00 0.00 86 1008.4
20260506012529 8 5 3.2 11.3 0.00 0.00 0.00 86 1008.4
20260506012040 8 19 6.4 11.3 0.00 0.00 0.00 87 1008.4
20260506011534 8 325 3.2 8.0 0.00 0.00 0.00 86 1008.4
20260506011048 8 331 1.6 6.4 0.00 0.00 0.00 86 1008.5
20260506010540 8 9 1.6 6.4 0.00 0.00 0.00 86 1008.5
20260506010040 8 355 1.6 4.8 0.00 0.00 0.00 86 1008.5
20260506005542 8 5 1.6 4.8 0.00 0.00 0.00 85 1008.6
20260506005055 8 329 1.6 9.7 0.00 0.00 0.00 85 1008.7
20260506004549 9 360 3.2 9.7 0.00 0.00 0.00 85 1008.8
20260506004031 9 18 1.6 8.0 0.00 0.00 0.00 85 1008.8
20260506003556 9 5 3.2 8.0 0.00 0.00 0.00 84 1008.8
20260506003036 9 30 1.6 8.0 0.00 0.00 0.00 84 1008.9
20260506002603 9 11 3.2 6.4 0.00 0.00 0.00 84 1008.9
20260506002110 9 336 1.6 4.8 0.00 0.00 0.00 84 1009.0
20260506001626 9 336 1.6 4.8 0.00 0.00 0.00 84 1009.0
20260506001051 9 346 1.6 4.8 0.00 0.00 0.00 84 1009.0
20260506000547 9 335 1.6 9.7 0.00 0.00 0.00 83 1009.0
20260506000038 9 13 3.2 9.7 0.00 0.00 0.00 83 1009.0
20260505235603 9 22 3.2 11.3 0.00 0.00 0.00 83 1009.1
20260505235039 9 5 3.2 9.7 0.00 0.00 0.00 83 1009.1
20260505234537 9 19 4.8 9.7 0.00 0.00 0.00 83 1009.1
20260505234031 9 355 1.6 9.7 0.00 0.00 0.00 82 1009.1
20260505233532 9 41 3.2 9.7 0.00 0.00 0.00 82 1009.2
20260505233036 8 9 3.2 9.7 0.00 0.00 0.00 82 1009.2
20260505232604 8 60 4.8 9.7 0.00 0.00 0.00 82 1009.3
20260505232028 8 12 3.2 8.0 0.00 0.00 0.00 83 1009.3
20260505231541 8 5 4.8 9.7 0.00 0.00 0.00 83 1009.4
20260505231055 8 355 4.8 11.3 0.00 0.00 0.00 82 1009.5
20260505230556 8 47 3.2 11.3 0.00 0.00 0.00 82 1009.5
20260505230025 8 360 3.2 8.0 0.00 0.00 0.00 82 1009.5
20260505225537 8 360 3.2 9.7 0.00 0.00 0.00 82 1009.5
20260505225033 8 38 4.8 9.7 0.00 0.00 0.00 82 1009.5
20260505224540 8 30 3.2 9.7 0.00 0.00 0.00 82 1009.5
20260505224046 8 5 4.8 9.7 0.00 0.00 0.00 81 1009.5
20260505223543 8 28 3.2 9.7 0.00 0.00 0.00 81 1009.5
20260505223029 8 349 4.8 11.3 0.00 0.00 0.00 81 1009.5
20260505222535 8 24 4.8 12.9 0.00 0.00 0.00 81 1009.5
20260505222037 8 360 3.2 12.9 0.00 0.00 0.00 80 1009.6
20260505221553 9 44 4.8 12.9 0.00 0.00 0.00 80 1009.6
20260505221045 9 344 3.2 9.7 0.00 0.00 0.00 80 1009.6
20260505220532 9 355 3.2 9.7 0.00 0.00 0.00 80 1009.6
20260505220049 9 31 3.2 9.7 0.00 0.00 0.00 80 1009.7
20260505215537 9 321 3.2 9.7 0.00 0.00 0.00 79 1009.7
20260505215041 9 39 3.2 11.3 0.00 0.00 0.00 79 1009.7
20260505214542 9 323 4.8 11.3 0.00 0.00 0.00 79 1009.8
20260505214036 9 319 4.8 9.7 0.00 0.00 0.00 79 1009.8
20260505213550 9 355 3.2 9.7 0.00 0.00 0.00 79 1009.8
20260505213111 9 24 4.8 9.7 0.00 0.00 0.00 79 1009.8
20260505212535 9 19 3.2 11.3 0.00 0.00 0.00 79 1009.9
20260505212042 9 26 4.8 11.3 0.00 0.00 0.00 78 1009.9
20260505211531 9 360 4.8 11.3 0.00 0.00 0.00 78 1009.9
20260505211037 10 19 3.2 14.5 0.00 0.00 0.00 78 1009.8
20260505210530 10 264 6.4 14.5 0.00 0.00 0.00 79 1009.9
20260505210029 10 22 4.8 14.5 0.00 0.00 0.00 79 1009.9
20260505205602 10 5 4.8 14.5 0.00 0.00 0.00 79 1010.0
20260505205040 10 16 4.8 12.9 0.00 0.00 0.00 80 1010.1
20260505204551 10 23 4.8 11.3 0.00 0.00 0.00 80 1010.0
20260505204025 10 37 3.2 8.0 0.00 0.00 0.00 81 1010.1
20260505203559 10 5 3.2 14.5 0.00 0.00 0.00 81 1010.1
20260505203046 10 30 4.8 11.3 0.00 0.00 0.00 81 1010.1
20260505202548 10 11 3.2 6.4 0.00 0.00 0.00 80 1010.1
20260505202119 10 49 3.2 9.7 0.00 0.00 0.00 80 1010.0
20260505201542 10 51 3.2 9.7 0.00 0.00 0.00 80 1010.0
20260505201033 10 355 4.8 8.0 0.00 0.00 0.00 80 1010.1
20260505200549 10 24 4.8 11.3 0.00 0.00 0.00 79 1010.0
20260505200029 10 349 4.8 12.9 0.00 0.00 0.00 79 1010.0
20260505195530 10 29 4.8 12.9 0.00 0.00 0.00 79 1010.0
20260505195033 10 360 4.8 12.9 0.00 0.00 0.00 78 1009.9
20260505194603 10 58 6.4 12.9 0.00 0.00 0.00 78 1009.8
20260505194037 10 32 6.4 14.5 0.00 0.00 0.00 78 1009.8
20260505193614 11 360 6.4 14.5 0.00 0.00 0.00 77 1009.7
20260505193039 11 17 6.4 12.9 0.00 0.00 0.00 77 1009.7
20260505192543 11 37 6.4 14.5 0.00 0.00 0.00 77 1009.6
20260505192030 11 5 6.4 17.7 0.00 0.00 0.00 76 1009.6
20260505191556 11 16 8.0 17.7 0.00 0.00 0.00 76 1009.5
20260505191035 11 17 4.8 17.7 0.00 0.00 0.00 75 1009.5
20260505190549 11 324 8.0 16.1 0.00 0.00 0.00 74 1009.4
20260505190046 11 355 6.4 16.1 0.00 0.00 0.00 74 1009.3
20260505185541 11 348 11.3 22.5 0.00 0.00 0.00 74 1009.3
20260505185055 11 44 9.7 22.5 0.00 0.00 0.00 73 1009.2
20260505184531 11 349 9.7 16.1 0.00 0.00 0.00 74 1009.2
20260505184105 11 17 8.0 19.3 0.00 0.00 0.00 74 1009.1
20260505183544 11 341 8.0 19.3 0.00 0.00 0.00 73 1009.1
20260505183028 12 24 9.7 19.3 0.00 0.00 0.00 74 1009.1
20260505182544 12 56 9.7 16.1 0.00 0.00 0.00 73 1009.2
20260505182103 12 46 6.4 20.9 0.00 0.00 0.00 73 1009.2
20260505181529 12 21 12.9 20.9 0.00 0.00 0.00 72 1009.2
20260505181110 12 5 9.7 20.9 0.00 0.00 0.00 72 1009.1
20260505180539 12 23 6.4 20.9 0.00 0.00 0.00 72 1009.1
20260505180046 12 346 9.7 24.1 0.00 0.00 0.00 72 1009.1
20260505175538 12 20 12.9 24.1 0.00 0.00 0.00 71 1009.1
20260505175040 12 17 11.3 22.5 0.00 0.00 0.00 72 1009.1
20260505174541 12 45 9.7 22.5 0.00 0.00 0.00 71 1009.2
20260505174029 12 57 8.0 17.7 0.00 0.00 0.00 71 1009.2
20260505173546 12 21 6.4 19.3 0.00 0.00 0.00 71 1009.2
20260505173050 12 336 9.7 20.9 0.00 0.00 0.00 70 1009.1
20260505172539 12 52 9.7 20.9 0.00 0.00 0.00 70 1009.2
20260505172035 12 22 8.0 22.5 0.00 0.00 0.00 69 1009.2
20260505171604 13 37 9.7 22.5 0.00 0.00 0.00 68 1009.2
20260505171023 13 64 11.3 19.3 0.00 0.00 0.00 68 1009.2
20260505170535 13 67 9.7 19.3 0.00 0.00 0.00 69 1009.2
20260505170048 13 31 9.7 19.3 0.00 0.00 0.00 69 1009.3
20260505165602 13 343 6.4 22.5 0.00 0.00 0.00 68 1009.3
20260505165038 13 55 8.0 22.5 0.00 0.00 0.00 68 1009.3
20260505164541 13 325 4.8 19.3 0.00 0.00 0.00 67 1009.2
20260505164124 13 355 8.0 17.7 0.00 0.00 0.00 67 1009.3
20260505163552 13 59 9.7 19.3 0.00 0.00 0.00 66 1009.3
20260505163029 13 76 8.0 16.1 0.00 0.00 0.00 66 1009.4
20260505162554 13 348 8.0 19.3 0.00 0.00 0.00 66 1009.4
20260505162049 14 332 9.7 19.3 0.00 0.00 0.00 65 1009.4
20260505161536 14 13 8.0 20.9 0.00 0.00 0.00 65 1009.4
20260505161027 14 31 9.7 19.3 0.00 0.00 0.00 65 1009.4
20260505160543 15 47 9.7 19.3 0.00 0.00 0.00 65 1009.4
20260505153032 13 46 8.0 20.9 0.00 0.00 0.00 65 1009.4
20260505152544 13 5 9.7 20.9 0.00 0.00 0.00 65 1009.5
20260505152043 13 33 8.0 17.7 0.00 0.00 0.00 64 1009.5
20260505151548 14 272 9.7 17.7 0.00 0.00 0.00 66 1009.5
20260505151035 13 317 6.4 16.1 0.00 0.00 0.00 65 1009.5
20260505150547 13 244 6.4 16.1 0.00 0.00 0.00 65 1009.6
20260505150106 13 304 6.4 16.1 0.00 0.00 0.00 65 1009.6
20260505140625 15 56 9.7 20.9 0.00 0.00 0.00 62 1009.8
20260505125030 16 40 8.0 19.3 0.00 0.00 0.00 61 1010.2
20260505124541 16 9 11.3 20.9 0.00 0.00 0.00 62 1010.2
20260505124054 16 360 9.7 20.9 0.00 0.00 0.00 63 1010.2
20260505123554 16 26 4.8 24.1 0.00 0.00 0.00 62 1010.2
20260505123037 16 72 8.0 24.1 0.00 0.00 0.00 62 1010.2
20260505122547 16 15 4.8 17.7 0.00 0.00 0.00 63 1010.3
20260505122055 16 5 6.4 19.3 0.00 0.00 0.00 61 1010.3
20260505121530 16 39 9.7 19.3 0.00 0.00 0.00 62 1010.3
20260505121031 16 90 8.0 14.5 0.00 0.00 0.00 64 1010.2
20260505120558 15 44 6.4 19.3 0.00 0.00 0.00 64 1010.1
20260505120040 15 28 9.7 19.3 0.00 0.00 0.00 64 1010.2
20260505115546 15 5 9.7 17.7 0.00 0.00 0.00 63 1010.2
20260505115100 15 342 9.7 20.9 0.00 0.00 0.00 63 1010.2
20260505114544 16 16 14.5 20.9 0.00 0.00 0.00 62 1010.3
20260505114041 16 25 9.7 19.3 0.00 0.00 0.00 63 1010.3
20260505113539 16 24 8.0 19.3 0.00 0.00 0.00 63 1010.4
20260505113059 16 247 8.0 17.7 0.00 0.00 0.00 65 1010.4
20260505112607 15 14 9.7 17.7 0.00 0.00 0.00 64 1010.5
20260505112026 16 236 4.8 17.7 0.00 0.00 0.00 63 1010.4
20260505111547 16 347 4.8 17.7 0.00 0.00 0.00 66 1010.6
20260505111028 15 63 6.4 24.1 0.00 0.00 0.00 65 1010.5
20260505110545 16 27 9.7 24.1 0.00 0.00 0.00 62 1010.6
20260505102049 16 19 11.3 25.7 0.00 0.00 0.00 66 1010.7
20260505101600 16 5 8.0 25.7 0.00 0.00 0.00 65 1010.7
20260505101052 16 5 8.0 20.9 0.00 0.00 0.00 65 1010.8
20260505100543 15 34 4.8 20.9 0.00 0.00 0.00 68 1010.9
20260505100045 16 84 11.3 20.9 0.00 0.00 0.00 66 1010.9
20260505095602 15 32 8.0 14.5 0.00 0.00 0.00 67 1010.9
20260505095042 16 31 8.0 14.5 0.00 0.00 0.00 66 1011.0
20260505094532 15 58 6.4 20.9 0.00 0.00 0.00 71 1011.1
20260505094055 13 24 8.0 20.9 0.00 0.00 0.00 74 1011.0
20260505093613 13 81 6.4 11.3 0.00 0.00 0.00 77 1011.0
20260505093056 13 86 3.2 11.3 0.00 0.00 0.00 75 1011.0
20260505092604 13 17 4.8 12.9 0.00 0.00 0.00 75 1011.1
20260505092040 13 328 6.4 14.5 0.00 0.00 0.00 73 1011.1
20260505091535 13 355 6.4 16.1 0.00 0.00 0.00 78 1011.1
20260505091100 12 85 4.8 19.3 0.00 0.00 0.00 77 1011.1
20260505090601 12 16 9.7 19.3 0.00 0.00 0.00 79 1011.1
20260505090051 12 5 6.4 22.5 0.00 0.00 0.00 83 1011.1
20260505085540 11 355 8.0 22.5 0.00 0.00 0.00 82 1011.1
20260505085039 11 30 9.7 19.3 0.00 0.00 0.00 84 1011.1
20260505084538 11 59 6.4 16.1 0.00 0.00 0.00 85 1011.0
20260505084034 11 36 6.4 14.5 0.00 0.00 0.00 86 1011.0
20260505083553 11 29 4.8 11.3 0.00 0.00 0.00 87 1011.0
20260505083029 11 60 4.8 11.3 0.00 0.00 0.00 87 1011.0
20260505082544 11 50 3.2 11.3 0.00 0.00 0.00 88 1011.0
20260505082055 11 24 3.2 9.7 0.00 0.00 0.00 88 1011.0
20260505081533 11 41 1.6 6.4 0.00 0.00 0.00 88 1011.1